timestamp,wind_dir_avg,wind_spd_avg,wind_spd_max_dir,wind_spd_gust,battery_voltage,lat,long
2021-04-10 00:04:01+00:00,28.0,7.89,30.0,8.5,12.57,47.59359,-54.27349
2021-04-10 00:14:01+00:00,32.0,8.75,28.0,9.52,12.57,47.59359,-54.27349
2021-04-10 00:24:01+00:00,35.0,8.51,38.0,9.62,12.57,47.59359,-54.27349
2021-04-10 00:34:01+00:00,36.0,8.67,36.0,9.63,12.57,47.59359,-54.27349
2021-04-10 00:44:01+00:00,34.0,8.03,43.0,9.17,12.57,47.59359,-54.27349
2021-04-10 00:54:01+00:00,31.0,7.64,30.0,8.31,12.57,47.59359,-54.27349
2021-04-10 01:04:01+00:00,31.0,10.06,35.0,11.12,12.57,47.59359,-54.27349
2021-04-10 01:14:01+00:00,31.0,9.56,31.0,10.3,12.49,47.59359,-54.27349
2021-04-10 01:24:01+00:00,23.0,10.78,26.0,11.93,12.49,47.59359,-54.27349
2021-04-10 01:34:01+00:00,27.0,8.28,31.0,9.0,12.49,47.59359,-54.27349
2021-04-10 01:44:01+00:00,33.0,7.88,42.0,9.0,12.49,47.59359,-54.27349
2021-04-10 01:54:01+00:00,23.0,9.31,22.0,10.83,12.49,47.59359,-54.27349
2021-04-10 02:04:01+00:00,27.0,9.55,27.0,11.55,12.49,47.59359,-54.27349
2021-04-10 02:14:01+00:00,29.0,9.72,28.0,11.22,12.49,47.59359,-54.27349
2021-04-10 02:24:01+00:00,22.0,11.13,20.0,12.45,12.49,47.59359,-54.27349
2021-04-10 02:34:01+00:00,23.0,9.03,22.0,10.08,12.49,47.59359,-54.27349
2021-04-10 02:44:01+00:00,23.0,8.29,32.0,9.47,12.49,47.59359,-54.27349
2021-04-10 02:54:01+00:00,29.0,9.63,31.0,11.42,12.49,47.59359,-54.27349
2021-04-10 03:04:01+00:00,17.0,9.86,18.0,10.75,12.49,47.59359,-54.27349
2021-04-10 03:14:01+00:00,6.0,9.45,4.0,11.02,12.49,47.59359,-54.27349
2021-04-10 03:24:01+00:00,9.0,9.95,12.0,11.56,12.49,47.59359,-54.27349
2021-04-10 03:34:01+00:00,14.0,8.84,9.0,10.06,12.49,47.59359,-54.27349
2021-04-10 03:44:01+00:00,15.0,7.8,17.0,8.84,12.49,47.59359,-54.27349
2021-04-10 03:54:01+00:00,26.0,8.64,23.0,9.8,12.49,47.59359,-54.27349
2021-04-10 04:04:01+00:00,14.0,7.52,13.0,8.81,12.49,47.59359,-54.27349
2021-04-10 04:14:01+00:00,14.0,8.39,13.0,10.04,12.41,47.59359,-54.27349
2021-04-10 04:24:01+00:00,13.0,10.64,14.0,11.87,12.41,47.59359,-54.27349
2021-04-10 04:34:01+00:00,19.0,8.71,21.0,9.96,12.41,47.59359,-54.27349
2021-04-10 04:44:01+00:00,10.0,9.05,0.0,10.94,12.41,47.59359,-54.27349
2021-04-10 04:54:01+00:00,21.0,9.59,24.0,11.0,12.41,47.59359,-54.27349
2021-04-10 05:04:01+00:00,18.0,8.29,15.0,9.93,12.41,47.59359,-54.27349
2021-04-10 05:14:01+00:00,20.0,9.5,22.0,10.76,12.41,47.59359,-54.27349
2021-04-10 05:24:01+00:00,12.0,8.37,13.0,9.61,12.41,47.59359,-54.27349
2021-04-10 05:34:01+00:00,15.0,10.09,16.0,11.75,12.41,47.59359,-54.27349
2021-04-10 05:44:01+00:00,16.0,8.67,10.0,10.54,12.41,47.59359,-54.27349
2021-04-10 05:54:01+00:00,15.0,8.53,16.0,10.23,12.41,47.59359,-54.27349
2021-04-10 06:04:01+00:00,12.0,7.71,13.0,9.03,12.41,47.59359,-54.27349
2021-04-10 06:14:01+00:00,9.0,6.57,20.0,8.25,12.41,47.59359,-54.27349
2021-04-10 06:24:01+00:00,6.0,9.35,6.0,11.06,12.41,47.59359,-54.27349
2021-04-10 06:34:01+00:00,3.0,7.88,3.0,8.89,12.41,47.59359,-54.27349
2021-04-10 06:44:01+00:00,9.0,7.35,12.0,8.66,12.41,47.59359,-54.27349
2021-04-10 06:54:01+00:00,4.0,10.16,5.0,11.26,12.41,47.59359,-54.27349
2021-04-10 07:04:01+00:00,12.0,8.36,9.0,9.53,12.41,47.59359,-54.27349
2021-04-10 07:14:01+00:00,4.0,11.06,3.0,12.59,12.41,47.59359,-54.27349
2021-04-10 07:24:01+00:00,7.0,8.11,15.0,9.62,12.41,47.59359,-54.27349
2021-04-10 07:34:01+00:00,7.0,7.15,6.0,8.34,12.41,47.59359,-54.27349
2021-04-10 07:44:01+00:00,11.0,8.17,19.0,9.42,12.41,47.59359,-54.27349
2021-04-10 07:54:01+00:00,25.0,8.92,24.0,9.76,12.41,47.59359,-54.27349
2021-04-10 08:04:01+00:00,18.0,8.41,14.0,9.42,12.41,47.59359,-54.27349
2021-04-10 08:14:01+00:00,23.0,7.92,33.0,8.92,12.33,47.59359,-54.27349
2021-04-10 08:24:01+00:00,25.0,7.73,23.0,9.87,12.33,47.59359,-54.27349
2021-04-10 08:34:01+00:00,25.0,9.03,24.0,10.05,12.33,47.59359,-54.27349
2021-04-10 08:44:01+00:00,22.0,9.3,29.0,11.42,12.33,47.59359,-54.27349
2021-04-10 08:54:01+00:00,15.0,9.73,18.0,10.91,12.33,47.59359,-54.27349
2021-04-10 09:04:01+00:00,18.0,10.55,19.0,11.49,12.33,47.59359,-54.27349
2021-04-10 09:14:01+00:00,16.0,9.64,18.0,11.19,12.33,47.59359,-54.27349
2021-04-10 09:24:01+00:00,10.0,9.54,14.0,11.08,12.33,47.59359,-54.27349
2021-04-10 09:34:01+00:00,11.0,9.16,13.0,10.47,12.33,47.59359,-54.27349
2021-04-10 09:44:01+00:00,11.0,10.13,12.0,11.29,12.33,47.59359,-54.27349
2021-04-10 09:54:01+00:00,8.0,9.65,11.0,11.18,12.33,47.59359,-54.27349
2021-04-10 10:04:01+00:00,9.0,8.4,9.0,9.67,12.33,47.59359,-54.27349
2021-04-10 10:14:01+00:00,11.0,9.7,12.0,10.55,12.33,47.59359,-54.27349
2021-04-10 10:24:01+00:00,13.0,9.36,17.0,10.27,12.33,47.59359,-54.27349
2021-04-10 10:34:01+00:00,8.0,7.56,14.0,9.08,12.33,47.59359,-54.27349
2021-04-10 10:44:01+00:00,16.0,10.38,15.0,12.01,12.33,47.59359,-54.27349
2021-04-10 10:54:01+00:00,15.0,8.85,7.0,9.63,12.33,47.59359,-54.27349
2021-04-10 11:04:01+00:00,16.0,7.32,18.0,8.56,12.33,47.59359,-54.27349
2021-04-10 11:14:01+00:00,18.0,9.32,19.0,10.37,12.41,47.59359,-54.27349
2021-04-10 11:24:01+00:00,21.0,8.81,22.0,10.2,12.41,47.59359,-54.27349
2021-04-10 11:34:01+00:00,13.0,8.86,18.0,9.82,12.41,47.59359,-54.27349
2021-04-10 11:44:01+00:00,15.0,7.35,17.0,8.24,12.41,47.59359,-54.27349
2021-04-10 11:54:01+00:00,8.0,8.94,5.0,10.43,12.41,47.59359,-54.27349
2021-04-10 12:04:01+00:00,15.0,8.79,16.0,10.05,12.41,47.59359,-54.27349
2021-04-10 12:14:01+00:00,16.0,8.63,13.0,10.57,12.97,47.59359,-54.27349
2021-04-10 12:24:01+00:00,17.0,8.94,17.0,10.67,12.97,47.59359,-54.27349
2021-04-10 12:34:01+00:00,18.0,8.39,24.0,9.67,12.97,47.59359,-54.27349
2021-04-10 12:44:01+00:00,19.0,7.7,18.0,8.83,12.97,47.59359,-54.27349
2021-04-10 12:54:01+00:00,7.0,9.58,0.0,11.44,12.97,47.59359,-54.27349
2021-04-10 13:04:01+00:00,18.0,8.93,15.0,10.34,12.97,47.59359,-54.27349
2021-04-10 13:14:01+00:00,13.0,7.84,9.0,9.85,13.6,47.59359,-54.27349
2021-04-10 13:24:01+00:00,17.0,9.65,20.0,10.94,13.6,47.59359,-54.27349
2021-04-10 13:34:01+00:00,16.0,8.75,18.0,10.58,13.6,47.59359,-54.27349
2021-04-10 13:44:01+00:00,24.0,8.76,17.0,10.94,13.6,47.59359,-54.27349
2021-04-10 13:54:01+00:00,16.0,8.58,12.0,9.43,13.6,47.59359,-54.27349
2021-04-10 14:04:01+00:00,10.0,7.71,15.0,9.5,13.6,47.59359,-54.27349
2021-04-10 14:14:01+00:00,17.0,9.29,16.0,9.98,13.68,47.59359,-54.27349
2021-04-10 14:24:01+00:00,16.0,9.69,21.0,10.95,13.68,47.59359,-54.27349
2021-04-10 14:34:01+00:00,16.0,8.57,16.0,9.9,13.68,47.59359,-54.27349
2021-04-10 14:44:01+00:00,21.0,8.39,21.0,10.06,13.68,47.59359,-54.27349
2021-04-10 14:54:01+00:00,18.0,8.75,16.0,11.76,13.68,47.59359,-54.27349
2021-04-10 15:04:01+00:00,15.0,10.58,16.0,12.43,13.68,47.59359,-54.27349
2021-04-10 15:14:01+00:00,19.0,7.56,19.0,8.7,13.6,47.59359,-54.27349
2021-04-10 15:24:01+00:00,15.0,9.07,12.0,12.32,13.6,47.59359,-54.27349
2021-04-10 15:34:01+00:00,30.0,6.02,23.0,7.0,13.6,47.59359,-54.27349
2021-04-10 15:44:01+00:00,17.0,8.05,12.0,10.11,13.6,47.59359,-54.27349
2021-04-10 15:54:01+00:00,13.0,9.79,14.0,11.1,13.6,47.59359,-54.27349
2021-04-10 16:04:01+00:00,17.0,9.96,17.0,11.83,13.6,47.59359,-54.27349
2021-04-10 16:14:01+00:00,18.0,8.86,13.0,11.17,13.68,47.59359,-54.27349
2021-04-10 16:24:01+00:00,16.0,9.12,15.0,10.98,13.68,47.59359,-54.27349
2021-04-10 16:34:01+00:00,17.0,10.8,14.0,14.87,13.68,47.59359,-54.27349
2021-04-10 16:44:01+00:00,15.0,8.73,15.0,10.67,13.68,47.59359,-54.27349
2021-04-10 16:54:01+00:00,12.0,6.41,13.0,7.48,13.68,47.59359,-54.27349
2021-04-10 17:04:01+00:00,7.0,5.76,2.0,6.95,13.68,47.59359,-54.27349
2021-04-10 17:14:01+00:00,13.0,7.36,9.0,8.93,13.76,47.59359,-54.27349
2021-04-10 17:24:01+00:00,19.0,6.84,18.0,8.69,13.76,47.59359,-54.27349
2021-04-10 17:34:01+00:00,3.0,7.52,2.0,8.71,13.76,47.59359,-54.27349
2021-04-10 17:44:01+00:00,4.0,6.29,8.0,8.28,13.76,47.59359,-54.27349
2021-04-10 17:54:01+00:00,8.0,7.72,13.0,8.65,13.76,47.59359,-54.27349
2021-04-10 18:04:01+00:00,1.0,7.93,359.0,8.89,13.76,47.59359,-54.27349
2021-04-10 18:14:01+00:00,4.0,6.72,5.0,7.63,13.76,47.59359,-54.27349
2021-04-10 18:24:01+00:00,9.0,6.59,8.0,8.16,13.76,47.59359,-54.27349
2021-04-10 18:34:01+00:00,11.0,7.42,16.0,8.56,13.76,47.59359,-54.27349
2021-04-10 18:44:01+00:00,2.0,8.22,4.0,9.26,13.76,47.59359,-54.27349
2021-04-10 18:54:01+00:00,19.0,7.47,18.0,8.68,13.76,47.59359,-54.27349
2021-04-10 19:04:01+00:00,16.0,7.75,19.0,9.05,13.76,47.59359,-54.27349
2021-04-10 19:14:01+00:00,18.0,8.01,21.0,9.34,13.76,47.59359,-54.27349
2021-04-10 19:24:01+00:00,11.0,7.53,7.0,9.0,13.76,47.59359,-54.27349
2021-04-10 19:34:01+00:00,8.0,7.88,6.0,9.41,13.76,47.59359,-54.27349
2021-04-10 19:44:01+00:00,4.0,8.57,4.0,9.62,13.76,47.59359,-54.27349
2021-04-10 19:54:01+00:00,4.0,8.28,8.0,9.93,13.76,47.59359,-54.27349
2021-04-10 20:04:01+00:00,1.0,8.57,2.0,10.25,13.76,47.59359,-54.27349
2021-04-10 20:14:01+00:00,356.0,7.72,0.0,8.87,13.68,47.59359,-54.27349
2021-04-10 20:24:01+00:00,6.0,9.17,4.0,10.29,13.68,47.59359,-54.27349
2021-04-10 20:34:01+00:00,6.0,9.25,20.0,10.83,13.68,47.59359,-54.27349
2021-04-10 20:44:01+00:00,4.0,8.33,18.0,10.1,13.68,47.59359,-54.27349
2021-04-10 20:54:01+00:00,4.0,7.78,0.0,9.41,13.68,47.59359,-54.27349
2021-04-10 21:04:01+00:00,11.0,7.35,13.0,9.29,13.68,47.59359,-54.27349
2021-04-10 21:14:01+00:00,15.0,6.71,21.0,7.49,13.44,47.59359,-54.27349
2021-04-10 21:24:01+00:00,17.0,7.44,22.0,8.6,13.44,47.59359,-54.27349
2021-04-10 21:34:01+00:00,21.0,9.33,22.0,10.73,13.44,47.59359,-54.27349
2021-04-10 21:44:01+00:00,19.0,8.5,20.0,9.62,13.44,47.59359,-54.27349
2021-04-10 21:54:01+00:00,22.0,6.77,24.0,7.6,13.44,47.59359,-54.27349
2021-04-10 22:04:01+00:00,13.0,7.97,11.0,9.15,13.44,47.59359,-54.27349
2021-04-10 22:14:01+00:00,7.0,7.11,2.0,8.31,12.89,47.59359,-54.27349
2021-04-10 22:24:01+00:00,3.0,7.19,0.0,7.67,12.89,47.59359,-54.27349
2021-04-10 22:34:01+00:00,8.0,6.6,1.0,7.91,12.89,47.59359,-54.27349
2021-04-10 22:44:01+00:00,14.0,7.22,21.0,8.93,12.89,47.59359,-54.27349
2021-04-10 22:54:01+00:00,6.0,8.08,4.0,10.0,12.89,47.59359,-54.27349
2021-04-10 23:04:01+00:00,7.0,7.31,16.0,8.38,12.89,47.59359,-54.27349
2021-04-10 23:14:01+00:00,10.0,7.09,9.0,8.47,12.57,47.59359,-54.27349
2021-04-10 23:24:01+00:00,13.0,6.31,15.0,7.11,12.57,47.59359,-54.27349
2021-04-10 23:34:01+00:00,12.0,6.63,15.0,7.53,12.57,47.59359,-54.27349
2021-04-10 23:44:01+00:00,12.0,5.73,19.0,6.54,12.57,47.59359,-54.27349
2021-04-10 23:54:01+00:00,12.0,7.24,11.0,8.26,12.57,47.59359,-54.27349
